Regional Weather Roundup
Issued by NWS Nashville, TN

Home | Current Version | Previous Version | Text Only | Print | Product List | Glossary On
Versions: 1 2 3 4 5 6 7 8 9 10 11 12 13 14 15 16 17 18 19 20 21 22 23 24 25 26 27
000
ASUS44 KOHX 190610
RWROHX
MIDDLE TENNESSEE HOURLY WEATHER ROUNDUP
NATIONAL WEATHER SERVICE NASHVILLE TN
1200 AM CST MON FEB 19 2018

NOTE: "FAIR" INDICATES FEW OR NO CLOUDS BELOW 12,000 FEET WITH
NO SIGNIFICANT WEATHER AND/OR OBSTRUCTIONS TO VISIBILITY.

* THESE REPORTS ARE NOT UNDER NWS QUALITY CONTROL AND MAY NOT
  REPORT WEATHER SUCH AS PRECIPITATION AND FOG.


TNZ005>011-023>034-057-059-062>066-078-080-190700
...NORTHERN MIDDLE TENNESSEE...

CITY           SKY/WX    TMP DP  RH WIND       PRES   REMARKS
CLARKSVILLE    CLOUDY    57  49  74 S10       30.09R
CROSSVILLE     CLOUDY    55  53  93 S9G18     30.21R
GALLATIN       CLOUDY    59  52  77 S7G15     30.16S
NASHVILLE      CLOUDY    59  52  77 S15       30.13F
PORTLAND       CLOUDY    57  50  77 S13       30.12R
SMYRNA         CLOUDY    59  55  87 S13       30.16S
SPARTA         CLOUDY    57  52  82 S9        30.17R
SPRINGFIELD    CLOUDY    57  52  82 S9G17     30.10R
WEST NASHVILLE CLOUDY    57  52  82 S7        30.12R
$$
TNZ056-058-060-061-075>077-079-093>097-190700
...SOUTHERN MIDDLE TENNESSEE...

CITY           SKY/WX    TMP DP  RH WIND       PRES   REMARKS
COLUMBIA       CLOUDY    57  57 100 S10G16    30.13R
MCMINNVILLE    CLOUDY    59  55  88 S5        30.17S
PULASKI        CLOUDY    57  57 100 S7        30.16S FOG
SHELBYVILLE    CLOUDY    57  55  94 S13       30.16F
TULLAHOMA      CLOUDY    57  55  94 SE8       30.17F
WINCHESTER     CLOUDY    57  55  94 S9        30.20R
$$


...KEY TO REMARKS...
VSB - VISIBILITY IN MILES
WCI - WIND CHILL INDEX
HX  - HEAT INDEX





USA.gov is the U.S. government's official web portal to all federal, state and local government web resources and services.